Flag for U.S.A. Weather past 2 weeks in Trenton, New Jersey, U.S.A.

Now
80 °F

Rain. Mostly cloudy.


Feels Like: 84 °F
Forecast: 73 / 87 °F
Wind: 15 mph from Northwest

Location: Mercer County Airport

Current Time: Jul 7, 2015 at 4:46:03 PM

Latest Report: Jul 7, 2015 at 3:59 PM


Visibility: 2 mi

Pressure: 29.97 "Hg

Humidity: 76%

Dew point: 72 °F

Location of TrentonLocation

Historic Weather in Trenton — Graph

°F

Trenton temperature yesterday

Maximum temperature yesterday: 84 °F (at 3:53 PM)
Minimum temperature yesterday: 69 °F (at 5:53 AM)
Average temperature yesterday: 76 °F

Past Weeks' High & Low Weather Summary

 TemperatureHumidityPressure
High91 °F (Jun 23, 3:53 PM)97% (Jun 28, 1:53 AM)30.14 "Hg (Jun 28, 1:53 AM)
Low60 °F (Jun 29, 4:53 AM)38% (Jun 25, 11:53 AM)29.62 "Hg (Jun 28, 4:53 AM)
Average73 °F70%29.93 "Hg
* Reported Jun 22 3:53 PM — Jul 7 3:59 PM, Trenton, Weather by CustomWeather, © 2015

Note: Actual official high and low records may vary slightly from our data, if they occured in-between our weather recording intervals... More about our weather records

Advertising

Trenton weather history for previous 24 hours

 ConditionsComfort  
Time TempWeatherWind HumidityBarometerVisibility
3:59 PM
Tue, Jul 7
80 °FRain. Mostly cloudy.15 mph76%29.97 "Hg2 mi
2:53 PM86 °FPassing clouds.12 mph57%29.94 "Hg10 mi
1:53 PM85 °FPassing clouds.9 mph61%29.96 "Hg10 mi
12:53 PM85 °FPassing clouds.10 mph63%29.97 "Hg10 mi
11:53 AM83 °FPassing clouds.8 mph70%29.99 "Hg10 mi
10:53 AM81 °FScattered clouds.6 mph72%30.01 "Hg10 mi
9:53 AM80 °FScattered clouds.8 mph74%30.02 "Hg10 mi
8:53 AM78 °FMostly cloudy.6 mph82%30.02 "Hg10 mi
7:53 AM76 °FBroken clouds.6 mph91%30.01 "Hg8 mi
6:53 AM75 °FFog.5 mph94%30.01 "Hg6 mi
6:04 AM75 °FOvercast.6 mph90%30.03 "Hg7 mi
5:53 AM74 °FPartly cloudy.5 mph94%30.01 "Hg7 mi
4:53 AM75 °FLow clouds.5 mph90%30.01 "Hg9 mi
3:53 AM75 °FMostly cloudy.7 mph90%30.01 "Hg9 mi
2:53 AM75 °FMostly cloudy.6 mph90%30.01 "Hg9 mi
1:53 AM75 °FLow clouds.9 mph88%30.01 "Hg9 mi
12:53 AM75 °FPassing clouds.6 mph88%30.03 "Hg10 mi
11:53 PM
Mon, Jul 6
75 °FOvercast.8 mph88%30.04 "Hg10 mi
10:53 PM75 °FOvercast.8 mph88%30.05 "Hg10 mi
9:53 PM75 °FOvercast.12 mph85%30.06 "Hg10 mi
8:53 PM76 °FSunny.9 mph82%30.05 "Hg10 mi
7:53 PM77 °FScattered clouds.9 mph82%30.05 "Hg10 mi
6:53 PM79 °FPartly sunny.7 mph82%30.05 "Hg10 mi
5:53 PM83 °FPassing clouds.8 mph70%30.05 "Hg10 mi
4:53 PM84 °FPassing clouds.8 mph61%30.05 "Hg10 mi
Weather by CustomWeather, © 2015

See weather overviewHow to use our weather pages